Time,TemperatureF,DewpointF,PressureIn,WindDirection,WindDirectionDegrees,WindSpeedMPH,WindSpeedGustMPH,Humidity,HourlyPrecipIn,Conditions,Clouds,dailyrainin,SoftwareType,DateUTC
2013-05-16 00:01:00,49.5,45.8,29.17,NNE,22,2.2,2.2,87,0.00,,---,0.00,VWS V14.01,2013-05-16 04:01:00,
2013-05-16 00:03:00,49.3,45.6,29.17,NNE,22,0.0,0.0,87,0.00,,---,0.00,VWS V14.01,2013-05-16 04:03:00,
2013-05-16 00:05:00,49.3,45.6,29.17,NNE,22,0.0,0.0,87,0.00,,---,0.00,VWS V14.01,2013-05-16 04:05:00,
2013-05-16 00:06:00,49.1,45.1,29.17,NNE,22,0.0,0.0,86,0.00,,---,0.00,VWS V14.01,2013-05-16 04:06:00,
2013-05-16 00:11:00,49.1,45.4,29.17,NNE,22,0.0,0.0,87,0.00,,---,0.00,VWS V14.01,2013-05-16 04:11:00,
2013-05-16 00:16:00,49.1,45.4,29.17,NNE,22,1.6,1.6,87,0.00,,---,0.00,VWS V14.01,2013-05-16 04:16:00,
2013-05-16 00:21:00,48.9,45.5,29.17,NNE,22,0.0,0.0,88,0.00,,---,0.00,VWS V14.01,2013-05-16 04:21:00,
2013-05-16 00:26:00,48.9,45.5,29.17,NNE,22,0.0,0.0,88,0.00,,---,0.00,VWS V14.01,2013-05-16 04:26:00,
2013-05-16 00:32:00,48.9,45.5,29.17,NNE,22,0.0,1.1,88,0.00,,---,0.00,VWS V14.01,2013-05-16 04:32:00,
2013-05-16 00:37:00,48.9,45.5,29.17,NW,315,2.0,2.0,88,0.00,,---,0.00,VWS V14.01,2013-05-16 04:37:00,
2013-05-16 00:43:00,49.1,46.0,29.17,NW,315,0.0,0.0,89,0.00,,---,0.00,VWS V14.01,2013-05-16 04:43:00,
2013-05-16 00:48:00,49.1,46.0,29.17,NW,315,0.0,1.3,89,0.00,,---,0.00,VWS V14.01,2013-05-16 04:48:00,
2013-05-16 00:53:00,49.1,46.0,29.17,NW,315,0.0,0.0,89,0.00,,---,0.00,VWS V14.01,2013-05-16 04:53:00,
2013-05-16 00:58:00,49.1,46.0,29.17,NW,315,0.0,0.0,89,0.00,,---,0.00,VWS V14.01,2013-05-16 04:58:00,
2013-05-16 01:03:00,49.1,46.0,29.17,WNW,292,1.3,1.6,89,0.00,,---,0.00,VWS V14.01,2013-05-16 05:03:00,
2013-05-16 01:08:00,49.1,46.0,29.17,WNW,292,0.0,0.0,89,0.00,,---,0.00,VWS V14.01,2013-05-16 05:08:00,
2013-05-16 01:13:00,49.3,46.2,29.17,WNW,292,0.0,0.0,89,0.00,,---,0.00,VWS V14.01,2013-05-16 05:13:00,
2013-05-16 01:18:00,49.3,46.2,29.17,WNW,292,0.0,0.0,89,0.00,,---,0.00,VWS V14.01,2013-05-16 05:18:00,
2013-05-16 01:23:00,49.3,46.5,29.17,WNW,292,0.0,0.0,90,0.00,,---,0.00,VWS V14.01,2013-05-16 05:23:00,
2013-05-16 01:28:00,49.3,46.5,29.17,WNW,292,0.0,0.0,90,0.00,,---,0.00,VWS V14.01,2013-05-16 05:28:00,
2013-05-16 01:33:00,49.3,46.5,29.17,WNW,292,0.0,0.0,90,0.00,,---,0.00,VWS V14.01,2013-05-16 05:33:00,
2013-05-16 01:38:00,49.3,46.5,29.17,WNW,292,0.0,0.0,90,0.00,,---,0.00,VWS V14.01,2013-05-16 05:38:00,
2013-05-16 01:43:00,49.5,46.7,29.17,West,270,1.6,1.6,90,0.00,,---,0.00,VWS V14.01,2013-05-16 05:43:00,
2013-05-16 01:48:00,49.5,46.7,29.17,West,270,1.3,1.6,90,0.00,,---,0.00,VWS V14.01,2013-05-16 05:48:00,
2013-05-16 01:53:00,49.5,46.7,29.17,West,270,0.0,0.0,90,0.00,,---,0.00,VWS V14.01,2013-05-16 05:53:00,
2013-05-16 01:58:00,49.5,46.7,29.17,West,270,0.0,0.0,90,0.00,,---,0.00,VWS V14.01,2013-05-16 05:58:00,
2013-05-16 02:03:00,49.5,46.7,29.17,West,270,0.0,0.0,90,0.00,,---,0.00,VWS V14.01,2013-05-16 06:03:00,
2013-05-16 02:09:00,49.5,46.7,29.17,West,270,0.0,0.0,90,0.00,,---,0.00,VWS V14.01,2013-05-16 06:09:00,
2013-05-16 02:14:00,49.5,46.7,29.17,West,270,0.0,0.0,90,0.00,,---,0.00,VWS V14.01,2013-05-16 06:14:00,
2013-05-16 02:19:00,49.5,46.7,29.17,West,270,0.0,0.0,90,0.00,,---,0.00,VWS V14.01,2013-05-16 06:19:00,
2013-05-16 02:25:00,49.3,46.5,29.17,West,270,0.0,0.0,90,0.00,,---,0.00,VWS V14.01,2013-05-16 06:25:00,
2013-05-16 02:30:00,49.3,46.5,29.17,West,270,0.0,0.0,90,0.00,,---,0.00,VWS V14.01,2013-05-16 06:30:00,
2013-05-16 02:35:00,49.3,46.5,29.17,WNW,292,0.0,0.0,90,0.00,,---,0.00,VWS V14.01,2013-05-16 06:35:00,
2013-05-16 02:41:00,49.3,46.5,29.17,WNW,292,0.0,0.0,90,0.00,,---,0.00,VWS V14.01,2013-05-16 06:41:00,
2013-05-16 02:46:00,49.3,46.5,29.17,WNW,292,0.0,0.0,90,0.00,,---,0.00,VWS V14.01,2013-05-16 06:46:00,
2013-05-16 02:51:00,49.1,46.6,29.17,WNW,292,0.0,0.0,91,0.00,,---,0.00,VWS V14.01,2013-05-16 06:51:00,
2013-05-16 02:56:00,49.1,46.6,29.20,WNW,292,0.0,0.0,91,0.00,,---,0.00,VWS V14.01,2013-05-16 06:56:00,
2013-05-16 03:01:00,49.1,46.3,29.20,WNW,292,0.0,0.0,90,0.00,,---,0.00,VWS V14.01,2013-05-16 07:01:00,
2013-05-16 03:06:00,49.1,46.3,29.20,WNW,292,0.0,0.0,90,0.00,,---,0.00,VWS V14.01,2013-05-16 07:06:00,
2013-05-16 03:11:00,48.9,46.4,29.17,WNW,292,0.0,0.0,91,0.00,,---,0.00,VWS V14.01,2013-05-16 07:11:00,
2013-05-16 03:17:00,48.9,46.4,29.17,WNW,292,0.0,0.0,91,0.00,,---,0.00,VWS V14.01,2013-05-16 07:17:00,
2013-05-16 03:22:00,48.9,46.4,29.17,WNW,292,0.0,0.0,91,0.00,,---,0.00,VWS V14.01,2013-05-16 07:22:00,
2013-05-16 03:27:00,48.9,46.4,29.17,WNW,292,0.0,0.0,91,0.00,,---,0.00,VWS V14.01,2013-05-16 07:27:00,
2013-05-16 03:32:00,48.9,46.4,29.17,WNW,292,0.0,0.0,91,0.00,,---,0.00,VWS V14.01,2013-05-16 07:32:00,
2013-05-16 03:37:00,48.9,46.4,29.17,WNW,292,0.0,0.0,91,0.00,,---,0.00,VWS V14.01,2013-05-16 07:37:00,
2013-05-16 03:42:00,48.9,46.4,29.17,WNW,292,0.0,0.0,91,0.00,,---,0.00,VWS V14.01,2013-05-16 07:42:00,
2013-05-16 03:47:00,48.7,46.2,29.17,WNW,292,0.0,0.0,91,0.00,,---,0.00,VWS V14.01,2013-05-16 07:47:00,
2013-05-16 03:52:00,48.7,46.2,29.17,WNW,292,0.0,0.0,91,0.00,,---,0.00,VWS V14.01,2013-05-16 07:52:00,
2013-05-16 03:58:00,48.6,46.1,29.17,WNW,292,0.0,0.0,91,0.00,,---,0.00,VWS V14.01,2013-05-16 07:58:00,
2013-05-16 04:03:00,48.6,46.1,29.17,WNW,292,0.0,0.0,91,0.00,,---,0.00,VWS V14.01,2013-05-16 08:03:00,
2013-05-16 04:08:00,48.4,45.9,29.17,WNW,292,0.0,0.0,91,0.00,,---,0.00,VWS V14.01,2013-05-16 08:08:00,
2013-05-16 04:13:00,48.4,45.9,29.17,WNW,292,0.0,0.0,91,0.00,,---,0.00,VWS V14.01,2013-05-16 08:13:00,
2013-05-16 04:18:00,48.4,45.9,29.17,WNW,292,0.0,0.0,91,0.00,,---,0.00,VWS V14.01,2013-05-16 08:18:00,
2013-05-16 04:23:00,48.4,45.9,29.14,WNW,292,0.0,0.0,91,0.00,,---,0.00,VWS V14.01,2013-05-16 08:23:00,
2013-05-16 04:28:00,48.4,45.9,29.14,WNW,292,0.0,1.3,91,0.00,,---,0.00,VWS V14.01,2013-05-16 08:28:00,
2013-05-16 04:34:00,48.4,45.9,29.14,WNW,292,0.0,0.0,91,0.00,,---,0.00,VWS V14.01,2013-05-16 08:34:00,
2013-05-16 04:40:00,48.4,45.9,29.14,WNW,292,0.0,0.0,91,0.00,,---,0.00,VWS V14.01,2013-05-16 08:40:00,
2013-05-16 04:45:00,48.4,45.9,29.14,WNW,292,0.0,0.0,91,0.00,,---,0.00,VWS V14.01,2013-05-16 08:45:00,
2013-05-16 04:50:00,48.4,46.2,29.14,WNW,292,0.0,0.0,92,0.00,,---,0.00,VWS V14.01,2013-05-16 08:50:00,
2013-05-16 04:55:00,48.4,46.2,29.14,WNW,292,0.0,0.0,92,0.00,,---,0.00,VWS V14.01,2013-05-16 08:55:00,
2013-05-16 05:01:00,48.4,46.2,29.14,WNW,292,0.0,0.0,92,0.00,,---,0.00,VWS V14.01,2013-05-16 09:01:00,
2013-05-16 05:06:00,48.4,46.2,29.14,WNW,292,0.0,0.0,92,0.00,,---,0.00,VWS V14.01,2013-05-16 09:06:00,
2013-05-16 05:11:00,48.4,46.2,29.14,WNW,292,0.0,0.0,92,0.00,,---,0.00,VWS V14.01,2013-05-16 09:11:00,
2013-05-16 05:17:00,48.4,46.2,29.14,WNW,292,0.0,0.0,92,0.00,,---,0.00,VWS V14.01,2013-05-16 09:17:00,
2013-05-16 05:22:00,48.4,46.2,29.14,WNW,292,0.0,0.0,92,0.00,,---,0.00,VWS V14.01,2013-05-16 09:22:00,
2013-05-16 05:27:00,48.4,46.2,29.14,WNW,292,0.0,0.0,92,0.00,,---,0.00,VWS V14.01,2013-05-16 09:27:00,
2013-05-16 05:32:00,48.4,46.2,29.14,WNW,292,0.0,0.0,92,0.00,,---,0.00,VWS V14.01,2013-05-16 09:32:00,
2013-05-16 05:37:00,48.4,46.2,29.14,WNW,292,0.0,0.0,92,0.00,,---,0.00,VWS V14.01,2013-05-16 09:37:00,
2013-05-16 05:42:00,48.4,46.5,29.14,WNW,292,0.0,0.0,93,0.00,,---,0.00,VWS V14.01,2013-05-16 09:42:00,
2013-05-16 05:47:00,48.4,46.5,29.14,WNW,292,0.0,0.0,93,0.00,,---,0.00,VWS V14.01,2013-05-16 09:47:00,
2013-05-16 05:53:00,48.4,46.5,29.14,WNW,292,0.0,0.0,93,0.00,,---,0.00,VWS V14.01,2013-05-16 09:53:00,
2013-05-16 05:58:00,48.6,46.6,29.14,WNW,292,0.0,0.0,93,0.00,,---,0.00,VWS V14.01,2013-05-16 09:58:00,
2013-05-16 06:03:00,48.6,46.6,29.14,WNW,292,0.0,0.0,93,0.00,,---,0.00,VWS V14.01,2013-05-16 10:03:00,
2013-05-16 06:08:00,48.6,46.6,29.14,WNW,292,0.0,0.0,93,0.00,,---,0.00,VWS V14.01,2013-05-16 10:08:00,
2013-05-16 06:13:00,48.6,46.6,29.14,WNW,292,0.0,1.3,93,0.00,,---,0.00,VWS V14.01,2013-05-16 10:13:00,
2013-05-16 06:18:00,48.6,46.6,29.14,WNW,292,0.0,0.0,93,0.00,,---,0.00,VWS V14.01,2013-05-16 10:18:00,
2013-05-16 06:23:00,48.7,46.8,29.17,WNW,292,0.0,0.0,93,0.00,,---,0.00,VWS V14.01,2013-05-16 10:23:00,
2013-05-16 06:28:00,48.7,46.8,29.17,WNW,292,0.9,1.3,93,0.00,,---,0.00,VWS V14.01,2013-05-16 10:28:00,
2013-05-16 06:33:00,48.7,46.8,29.17,WNW,292,0.0,2.0,93,0.00,,---,0.00,VWS V14.01,2013-05-16 10:33:00,
2013-05-16 06:38:00,48.9,47.0,29.14,WNW,292,1.3,1.6,93,0.00,,---,0.00,VWS V14.01,2013-05-16 10:38:00,
2013-05-16 06:43:00,49.1,47.2,29.14,WNW,292,1.6,2.2,93,0.00,,---,0.00,VWS V14.01,2013-05-16 10:43:00,
2013-05-16 06:48:00,49.3,47.3,29.14,WNW,292,2.0,2.0,93,0.00,,---,0.00,VWS V14.01,2013-05-16 10:48:00,
2013-05-16 06:53:00,49.3,47.3,29.17,WSW,248,0.0,1.6,93,0.00,,---,0.00,VWS V14.01,2013-05-16 10:53:00,
2013-05-16 06:58:00,49.5,47.5,29.17,SW,225,0.0,0.0,93,0.00,,---,0.00,VWS V14.01,2013-05-16 10:58:00,
2013-05-16 07:04:00,49.5,47.5,29.17,WSW,248,1.6,1.6,93,0.00,,---,0.00,VWS V14.01,2013-05-16 11:04:00,
2013-05-16 07:09:00,49.6,47.7,29.14,ESE,112,0.0,0.0,93,0.00,,---,0.00,VWS V14.01,2013-05-16 11:09:00,
2013-05-16 07:15:00,49.6,47.7,29.14,East,90,0.0,0.0,93,0.00,,---,0.00,VWS V14.01,2013-05-16 11:15:00,
2013-05-16 07:20:00,49.6,47.4,29.14,North,0,2.0,2.0,92,0.00,,---,0.00,VWS V14.01,2013-05-16 11:20:00,
2013-05-16 07:26:00,49.6,47.4,29.17,NW,315,0.0,0.0,92,0.00,,---,0.00,VWS V14.01,2013-05-16 11:26:00,
2013-05-16 07:31:00,49.8,47.9,29.17,NW,315,0.0,0.0,93,0.00,,---,0.00,VWS V14.01,2013-05-16 11:31:00,
2013-05-16 07:36:00,50.0,47.8,29.17,West,270,0.0,2.0,92,0.00,,---,0.00,VWS V14.01,2013-05-16 11:36:00,
2013-05-16 07:41:00,50.2,48.2,29.17,ENE,68,2.0,2.5,93,0.00,,---,0.00,VWS V14.01,2013-05-16 11:41:00,
2013-05-16 07:46:00,50.4,48.4,29.17,East,90,1.6,1.6,93,0.00,,---,0.00,VWS V14.01,2013-05-16 11:46:00,
2013-05-16 07:52:00,50.7,48.8,29.17,NW,315,1.1,1.1,93,0.00,,---,0.00,VWS V14.01,2013-05-16 11:52:00,
2013-05-16 07:57:00,51.1,49.1,29.17,NW,315,0.0,1.6,93,0.00,,---,0.00,VWS V14.01,2013-05-16 11:57:00,
2013-05-16 08:02:00,51.3,49.0,29.17,NE,45,0.9,1.3,92,0.00,,---,0.00,VWS V14.01,2013-05-16 12:02:00,
2013-05-16 08:08:00,51.6,49.4,29.17,NNE,22,0.0,0.0,92,0.00,,---,0.00,VWS V14.01,2013-05-16 12:08:00,
2013-05-16 08:13:00,51.6,49.4,29.17,WNW,292,0.0,0.0,92,0.00,,---,0.00,VWS V14.01,2013-05-16 12:13:00,
2013-05-16 08:18:00,51.8,49.3,29.17,NNW,338,1.1,1.1,91,0.00,,---,0.00,VWS V14.01,2013-05-16 12:18:00,
2013-05-16 08:23:00,52.0,49.4,29.17,ENE,68,1.3,1.6,91,0.00,,---,0.00,VWS V14.01,2013-05-16 12:23:00,
2013-05-16 08:28:00,52.2,49.6,29.17,NE,45,0.0,1.3,91,0.00,,---,0.00,VWS V14.01,2013-05-16 12:28:00,
2013-05-16 08:33:00,52.2,49.6,29.17,NNW,338,1.6,2.5,91,0.00,,---,0.00,VWS V14.01,2013-05-16 12:33:00,
2013-05-16 08:38:00,52.3,49.8,29.17,ENE,68,1.1,2.7,91,0.00,,---,0.00,VWS V14.01,2013-05-16 12:38:00,
2013-05-16 08:43:00,52.7,50.2,29.17,ENE,68,1.1,1.3,91,0.00,,---,0.00,VWS V14.01,2013-05-16 12:43:00,
2013-05-16 08:48:00,53.1,50.2,29.17,NNE,22,0.0,0.0,90,0.00,,---,0.00,VWS V14.01,2013-05-16 12:48:00,
2013-05-16 08:53:00,53.4,50.6,29.17,SSW,202,1.1,1.1,90,0.00,,---,0.00,VWS V14.01,2013-05-16 12:53:00,
2013-05-16 08:58:00,53.6,50.4,29.17,NNW,338,0.0,1.1,89,0.00,,---,0.00,VWS V14.01,2013-05-16 12:58:00,
2013-05-16 09:03:00,54.3,51.2,29.17,NNW,338,1.3,2.0,89,0.00,,---,0.00,VWS V14.01,2013-05-16 13:03:00,
2013-05-16 09:08:00,54.9,51.7,29.17,NW,315,2.0,2.0,89,0.00,,---,0.00,VWS V14.01,2013-05-16 13:08:00,
2013-05-16 09:14:00,55.9,52.4,29.17,SSE,158,2.9,2.9,88,0.00,,---,0.00,VWS V14.01,2013-05-16 13:14:00,
2013-05-16 09:19:00,55.8,51.3,29.17,WSW,248,1.1,2.7,85,0.00,,---,0.00,VWS V14.01,2013-05-16 13:19:00,
2013-05-16 09:24:00,55.9,51.2,29.17,SSW,202,2.0,2.0,84,0.00,,---,0.00,VWS V14.01,2013-05-16 13:24:00,
2013-05-16 09:29:00,56.1,51.4,29.17,ENE,68,2.0,3.1,84,0.00,,---,0.00,VWS V14.01,2013-05-16 13:29:00,
2013-05-16 09:34:00,56.7,52.2,29.17,North,0,2.0,2.0,85,0.00,,---,0.00,VWS V14.01,2013-05-16 13:34:00,
2013-05-16 09:39:00,56.8,52.1,29.14,East,90,2.5,3.1,84,0.00,,---,0.00,VWS V14.01,2013-05-16 13:39:00,
2013-05-16 09:44:00,56.8,52.1,29.14,SW,225,2.5,2.7,84,0.00,,---,0.00,VWS V14.01,2013-05-16 13:44:00,
2013-05-16 09:50:00,57.2,52.1,29.14,SW,225,3.1,3.1,83,0.00,,---,0.00,VWS V14.01,2013-05-16 13:50:00,
2013-05-16 09:56:00,57.6,52.4,29.14,SSE,158,1.3,2.2,83,0.00,,---,0.00,VWS V14.01,2013-05-16 13:56:00,
2013-05-16 10:01:00,58.1,53.3,29.14,North,0,0.0,2.9,84,0.00,,---,0.00,VWS V14.01,2013-05-16 14:01:00,
2013-05-16 10:06:00,58.6,53.8,29.14,NE,45,1.6,2.0,84,0.00,,---,0.00,VWS V14.01,2013-05-16 14:06:00,
2013-05-16 10:11:00,59.4,54.5,29.14,NW,315,2.9,3.8,84,0.00,,---,0.00,VWS V14.01,2013-05-16 14:11:00,
2013-05-16 10:16:00,59.5,54.4,29.14,SSW,202,1.1,1.1,83,0.00,,---,0.00,VWS V14.01,2013-05-16 14:16:00,
2013-05-16 10:21:00,60.1,54.9,29.14,East,90,1.6,1.6,83,0.00,,---,0.00,VWS V14.01,2013-05-16 14:21:00,
2013-05-16 10:26:00,60.6,55.1,29.14,SSW,202,2.7,2.9,82,0.00,,---,0.00,VWS V14.01,2013-05-16 14:26:00,
2013-05-16 10:31:00,61.0,55.1,29.14,South,180,1.1,2.5,81,0.00,,---,0.00,VWS V14.01,2013-05-16 14:31:00,
2013-05-16 10:36:00,61.7,55.8,29.14,WNW,292,2.7,2.7,81,0.00,,---,0.00,VWS V14.01,2013-05-16 14:36:00,
2013-05-16 10:41:00,62.6,56.0,29.12,SSE,158,4.0,4.3,79,0.00,,---,0.00,VWS V14.01,2013-05-16 14:41:00,
2013-05-16 10:46:00,63.1,56.2,29.12,WNW,292,0.9,2.2,78,0.00,,---,0.00,VWS V14.01,2013-05-16 14:46:00,
2013-05-16 10:51:00,63.7,54.5,29.12,West,270,4.3,4.3,72,0.00,,---,0.00,VWS V14.01,2013-05-16 14:51:00,
2013-05-16 10:56:00,64.4,50.2,29.12,NNW,338,1.1,6.0,60,0.00,,---,0.00,VWS V14.01,2013-05-16 14:56:00,
2013-05-16 11:01:00,64.9,52.1,29.12,SW,225,2.7,3.1,63,0.00,,---,0.00,VWS V14.01,2013-05-16 15:01:00,
2013-05-16 11:06:00,65.5,50.3,29.12,SW,225,2.7,4.3,58,0.00,,---,0.00,VWS V14.01,2013-05-16 15:06:00,
2013-05-16 11:11:00,66.0,41.7,29.12,NNW,338,3.8,6.0,41,0.00,,---,0.00,VWS V14.01,2013-05-16 15:11:00,
2013-05-16 11:16:00,66.6,47.4,29.12,West,270,5.4,5.4,50,0.00,,---,0.00,VWS V14.01,2013-05-16 15:16:00,
2013-05-16 11:21:00,67.1,43.9,29.12,NNW,338,4.0,4.0,43,0.00,,---,0.00,VWS V14.01,2013-05-16 15:21:00,
2013-05-16 11:26:00,67.3,41.5,29.12,WNW,292,7.8,7.8,39,0.00,,---,0.00,VWS V14.01,2013-05-16 15:26:00,
2013-05-16 11:31:00,67.6,45.0,29.12,SW,225,7.4,7.4,44,0.00,,---,0.00,VWS V14.01,2013-05-16 15:31:00,
2013-05-16 11:36:00,67.8,38.5,29.12,SE,135,3.6,5.6,34,0.00,,---,0.00,VWS V14.01,2013-05-16 15:36:00,
2013-05-16 11:41:00,68.0,40.8,29.14,West,270,6.3,6.5,37,0.00,,---,0.00,VWS V14.01,2013-05-16 15:41:00,
2013-05-16 11:46:00,68.4,42.5,29.14,East,90,5.4,5.4,39,0.00,,---,0.00,VWS V14.01,2013-05-16 15:46:00,
2013-05-16 11:51:00,68.9,38.6,29.14,South,180,6.0,8.7,33,0.00,,---,0.00,VWS V14.01,2013-05-16 15:51:00,
2013-05-16 11:56:00,69.1,38.0,29.12,West,270,8.5,8.5,32,0.00,,---,0.00,VWS V14.01,2013-05-16 15:56:00,
2013-05-16 12:01:00,69.3,38.2,29.12,West,270,4.0,4.0,32,0.00,,---,0.00,VWS V14.01,2013-05-16 16:01:00,
2013-05-16 12:06:00,69.4,39.9,29.12,West,270,6.5,6.5,34,0.00,,---,0.00,VWS V14.01,2013-05-16 16:06:00,
2013-05-16 12:11:00,69.8,39.4,29.12,NNW,338,3.4,6.5,33,0.00,,---,0.00,VWS V14.01,2013-05-16 16:11:00,
2013-05-16 12:16:00,70.2,40.5,29.12,NW,315,2.5,4.0,34,0.00,,---,0.00,VWS V14.01,2013-05-16 16:16:00,
2013-05-16 12:21:00,70.7,41.7,29.12,WSW,248,4.9,6.5,35,0.00,,---,0.00,VWS V14.01,2013-05-16 16:21:00,
2013-05-16 12:26:00,71.1,40.5,29.12,West,270,5.4,5.6,33,0.00,,---,0.00,VWS V14.01,2013-05-16 16:26:00,
2013-05-16 12:31:00,71.1,39.7,29.12,West,270,4.0,5.6,32,0.00,,---,0.00,VWS V14.01,2013-05-16 16:31:00,
2013-05-16 12:36:00,71.4,40.8,29.12,WNW,292,3.1,4.0,33,0.00,,---,0.00,VWS V14.01,2013-05-16 16:36:00,
2013-05-16 12:41:00,71.6,40.2,29.12,WNW,292,6.3,6.3,32,0.00,,---,0.00,VWS V14.01,2013-05-16 16:41:00,
2013-05-16 12:46:00,71.8,40.4,29.12,SE,135,3.1,7.4,32,0.00,,---,0.00,VWS V14.01,2013-05-16 16:46:00,
2013-05-16 12:51:00,72.3,40.8,29.12,WSW,248,6.3,6.3,32,0.00,,---,0.00,VWS V14.01,2013-05-16 16:51:00,
2013-05-16 12:56:00,72.1,38.2,29.12,SSW,202,3.4,7.8,29,0.00,,---,0.00,VWS V14.01,2013-05-16 16:56:00,
2013-05-16 13:01:00,72.5,40.2,29.12,SE,135,8.1,9.6,31,0.00,,---,0.00,VWS V14.01,2013-05-16 17:01:00,
2013-05-16 13:06:00,72.9,41.3,29.12,West,270,7.4,7.4,32,0.00,,---,0.00,VWS V14.01,2013-05-16 17:06:00,
2013-05-16 13:11:00,73.0,39.8,29.09,WNW,292,10.5,10.5,30,0.00,,---,0.00,VWS V14.01,2013-05-16 17:11:00,
2013-05-16 13:16:00,73.2,40.8,29.09,West,270,11.0,11.0,31,0.00,,---,0.00,VWS V14.01,2013-05-16 17:16:00,
2013-05-16 13:21:00,73.2,39.1,29.09,WSW,248,4.3,10.7,29,0.00,,---,0.00,VWS V14.01,2013-05-16 17:21:00,
2013-05-16 13:27:00,73.9,41.4,29.12,West,270,4.9,6.5,31,0.00,,---,0.00,VWS V14.01,2013-05-16 17:27:00,
2013-05-16 13:32:00,74.5,41.9,29.12,WNW,292,3.1,5.4,31,0.00,,---,0.00,VWS V14.01,2013-05-16 17:32:00,
2013-05-16 13:38:00,74.7,39.4,29.09,South,180,3.6,9.2,28,0.00,,---,0.00,VWS V14.01,2013-05-16 17:38:00,
2013-05-16 13:43:00,75.0,39.7,29.09,WSW,248,3.8,4.9,28,0.00,,---,0.00,VWS V14.01,2013-05-16 17:43:00,
2013-05-16 13:48:00,75.2,37.0,29.09,NNW,338,3.6,6.3,25,0.00,,---,0.00,VWS V14.01,2013-05-16 17:48:00,
2013-05-16 13:53:00,75.0,36.8,29.09,West,270,7.4,9.0,25,0.00,,---,0.00,VWS V14.01,2013-05-16 17:53:00,
2013-05-16 13:59:00,75.4,38.2,29.09,WNW,292,3.4,4.7,26,0.00,,---,0.00,VWS V14.01,2013-05-16 17:59:00,
2013-05-16 14:04:00,75.7,38.5,29.09,WNW,292,3.8,6.0,26,0.00,,---,0.00,VWS V14.01,2013-05-16 18:04:00,
2013-05-16 14:09:00,76.3,37.9,29.09,West,270,6.5,6.5,25,0.00,,---,0.00,VWS V14.01,2013-05-16 18:09:00,
2013-05-16 14:15:00,77.0,39.5,29.09,NNE,22,4.9,5.4,26,0.00,,---,0.00,VWS V14.01,2013-05-16 18:15:00,
2013-05-16 14:20:00,77.2,37.6,29.09,SW,225,4.3,6.5,24,0.00,,---,0.00,VWS V14.01,2013-05-16 18:20:00,
2013-05-16 14:31:00,77.2,38.7,29.09,NW,315,4.7,5.6,25,0.00,,---,0.00,VWS V14.01,2013-05-16 18:31:00,
2013-05-16 14:36:00,76.3,38.9,29.09,ENE,68,1.6,3.4,26,0.00,,---,0.00,VWS V14.01,2013-05-16 18:36:00,
2013-05-16 14:41:00,76.5,37.0,29.09,WNW,292,4.0,8.5,24,0.00,,---,0.00,VWS V14.01,2013-05-16 18:41:00,
2013-05-16 14:46:00,75.6,34.1,29.09,WSW,248,3.6,7.2,22,0.00,,---,0.00,VWS V14.01,2013-05-16 18:46:00,
2013-05-16 14:51:00,74.8,33.5,29.09,NNE,22,8.1,16.3,22,0.00,,---,0.00,VWS V14.01,2013-05-16 18:51:00,
2013-05-16 14:56:00,75.2,34.9,29.09,WSW,248,5.8,5.8,23,0.00,,---,0.00,VWS V14.01,2013-05-16 18:56:00,
2013-05-16 15:02:00,75.0,35.8,29.09,West,270,4.0,6.0,24,0.00,,---,0.00,VWS V14.01,2013-05-16 19:02:00,
2013-05-16 15:07:00,74.7,34.4,29.09,WNW,292,6.5,6.5,23,0.00,,---,0.00,VWS V14.01,2013-05-16 19:07:00,
2013-05-16 15:12:00,74.3,36.2,29.09,WSW,248,1.6,4.0,25,0.00,,---,0.00,VWS V14.01,2013-05-16 19:12:00,
2013-05-16 15:17:00,73.6,35.6,29.09,North,0,3.6,4.0,25,0.00,,---,0.00,VWS V14.01,2013-05-16 19:17:00,
2013-05-16 15:22:00,73.9,35.9,29.09,East,90,2.2,2.9,25,0.00,,---,0.00,VWS V14.01,2013-05-16 19:22:00,
2013-05-16 15:27:00,73.4,35.5,29.09,SW,225,3.1,4.0,25,0.00,,---,0.00,VWS V14.01,2013-05-16 19:27:00,
2013-05-16 15:32:00,73.0,35.2,29.09,West,270,3.4,7.4,25,0.00,,---,0.00,VWS V14.01,2013-05-16 19:32:00,
2013-05-16 15:37:00,72.5,36.7,29.09,WSW,248,4.3,4.7,27,0.00,,---,0.00,VWS V14.01,2013-05-16 19:37:00,
2013-05-16 15:42:00,72.5,37.6,29.09,WSW,248,1.6,1.6,28,0.00,,---,0.00,VWS V14.01,2013-05-16 19:42:00,
2013-05-16 15:48:00,72.1,35.4,29.09,SSE,158,3.1,6.3,26,0.00,,---,0.00,VWS V14.01,2013-05-16 19:48:00,
2013-05-16 15:53:00,71.8,35.1,29.09,WSW,248,7.8,7.8,26,0.00,,---,0.00,VWS V14.01,2013-05-16 19:53:00,
2013-05-16 15:58:00,72.5,34.7,29.09,WSW,248,6.0,6.0,25,0.00,,---,0.00,VWS V14.01,2013-05-16 19:58:00,
2013-05-16 16:03:00,73.2,35.3,29.09,SW,225,2.7,3.1,25,0.00,,---,0.00,VWS V14.01,2013-05-16 20:03:00,
2013-05-16 16:08:00,73.2,35.3,29.09,WNW,292,4.5,6.3,25,0.00,,---,0.00,VWS V14.01,2013-05-16 20:08:00,
2013-05-16 16:14:00,73.4,34.5,29.09,SW,225,3.6,4.7,24,0.00,,---,0.00,VWS V14.01,2013-05-16 20:14:00,
2013-05-16 16:19:00,73.4,34.5,29.09,West,270,3.8,6.7,24,0.00,,---,0.00,VWS V14.01,2013-05-16 20:19:00,
2013-05-16 16:24:00,73.0,34.1,29.09,NW,315,8.7,8.7,24,0.00,,---,0.00,VWS V14.01,2013-05-16 20:24:00,
2013-05-16 16:29:00,72.5,34.7,29.09,WSW,248,4.9,6.5,25,0.00,,---,0.00,VWS V14.01,2013-05-16 20:29:00,
2013-05-16 16:34:00,72.9,34.0,29.09,SE,135,3.8,5.4,24,0.00,,---,0.00,VWS V14.01,2013-05-16 20:34:00,
2013-05-16 16:39:00,73.4,33.4,29.12,WNW,292,5.6,6.5,23,0.00,,---,0.00,VWS V14.01,2013-05-16 20:39:00,
2013-05-16 16:45:00,73.9,33.8,29.12,West,270,5.4,10.5,23,0.00,,---,0.00,VWS V14.01,2013-05-16 20:45:00,
2013-05-16 16:50:00,73.4,34.5,29.12,West,270,4.0,4.9,24,0.00,,---,0.00,VWS V14.01,2013-05-16 20:50:00,
2013-05-16 16:55:00,72.9,34.0,29.12,SW,225,3.6,6.5,24,0.00,,---,0.00,VWS V14.01,2013-05-16 20:55:00,
2013-05-16 17:01:00,72.7,33.8,29.12,West,270,3.6,4.3,24,0.00,,---,0.00,VWS V14.01,2013-05-16 21:01:00,
2013-05-16 17:06:00,72.1,33.4,29.12,WNW,292,3.1,3.8,24,0.00,,---,0.00,VWS V14.01,2013-05-16 21:06:00,
2013-05-16 17:12:00,72.1,33.4,29.12,WSW,248,4.0,6.3,24,0.00,,---,0.00,VWS V14.01,2013-05-16 21:12:00,
2013-05-16 17:17:00,71.8,33.1,29.12,West,270,2.5,4.7,24,0.00,,---,0.00,VWS V14.01,2013-05-16 21:17:00,
2013-05-16 17:23:00,71.6,34.0,29.14,SW,225,0.9,2.0,25,0.00,,---,0.00,VWS V14.01,2013-05-16 21:23:00,
2013-05-16 17:28:00,71.2,33.6,29.14,South,180,5.8,5.8,25,0.00,,---,0.00,VWS V14.01,2013-05-16 21:28:00,
2013-05-16 17:33:00,70.7,34.2,29.14,South,180,5.6,5.6,26,0.00,,---,0.00,VWS V14.01,2013-05-16 21:33:00,
2013-05-16 17:38:00,70.5,34.0,29.14,NNW,338,5.8,5.8,26,0.00,,---,0.00,VWS V14.01,2013-05-16 21:38:00,
2013-05-16 17:43:00,70.2,34.7,29.14,WSW,248,1.6,1.6,27,0.00,,---,0.00,VWS V14.01,2013-05-16 21:43:00,
2013-05-16 17:48:00,70.0,34.5,29.14,SSW,202,0.0,2.5,27,0.00,,---,0.00,VWS V14.01,2013-05-16 21:48:00,
2013-05-16 17:53:00,69.6,34.2,29.14,WNW,292,3.8,3.8,27,0.00,,---,0.00,VWS V14.01,2013-05-16 21:53:00,
2013-05-16 17:59:00,69.4,34.0,29.14,West,270,2.2,3.8,27,0.00,,---,0.00,VWS V14.01,2013-05-16 21:59:00,
2013-05-16 18:05:00,68.9,34.5,29.14,NNE,22,0.9,4.3,28,0.00,,---,0.00,VWS V14.01,2013-05-16 22:05:00,
2013-05-16 18:10:00,68.7,34.3,29.14,ESE,112,1.1,1.1,28,0.00,,---,0.00,VWS V14.01,2013-05-16 22:10:00,
2013-05-16 18:16:00,68.5,35.0,29.14,SW,225,2.2,3.1,29,0.00,,---,0.00,VWS V14.01,2013-05-16 22:16:00,
2013-05-16 18:21:00,68.2,33.9,29.14,SSE,158,3.4,5.6,28,0.00,,---,0.00,VWS V14.01,2013-05-16 22:21:00,
2013-05-16 18:26:00,68.0,33.7,29.17,SSW,202,1.3,2.2,28,0.00,,---,0.00,VWS V14.01,2013-05-16 22:26:00,
2013-05-16 18:31:00,67.8,34.4,29.17,South,180,1.1,3.4,29,0.00,,---,0.00,VWS V14.01,2013-05-16 22:31:00,
2013-05-16 18:36:00,67.6,34.3,29.17,WSW,248,3.6,3.6,29,0.00,,---,0.00,VWS V14.01,2013-05-16 22:36:00,
2013-05-16 18:41:00,67.3,35.6,29.17,West,270,2.9,2.9,31,0.00,,---,0.00,VWS V14.01,2013-05-16 22:41:00,
2013-05-16 18:46:00,66.9,35.3,29.17,South,180,2.5,2.5,31,0.00,,---,0.00,VWS V14.01,2013-05-16 22:46:00,
2013-05-16 18:51:00,66.6,35.8,29.17,SE,135,4.7,4.7,32,0.00,,---,0.00,VWS V14.01,2013-05-16 22:51:00,
2013-05-16 18:56:00,66.0,35.3,29.17,East,90,4.3,4.3,32,0.00,,---,0.00,VWS V14.01,2013-05-16 22:56:00,
2013-05-16 19:02:00,65.5,35.6,29.17,South,180,2.5,6.5,33,0.00,,---,0.00,VWS V14.01,2013-05-16 23:02:00,
2013-05-16 19:07:00,65.1,35.3,29.17,South,180,2.7,4.7,33,0.00,,---,0.00,VWS V14.01,2013-05-16 23:07:00,
2013-05-16 19:12:00,64.8,35.0,29.20,NNW,338,3.4,4.7,33,0.00,,---,0.00,VWS V14.01,2013-05-16 23:12:00,
2013-05-16 19:17:00,64.4,35.5,29.20,South,180,1.6,2.7,34,0.00,,---,0.00,VWS V14.01,2013-05-16 23:17:00,
2013-05-16 19:23:00,63.7,35.5,29.20,South,180,4.3,6.0,35,0.00,,---,0.00,VWS V14.01,2013-05-16 23:23:00,
2013-05-16 19:28:00,63.5,35.4,29.20,West,270,7.2,7.2,35,0.00,,---,0.00,VWS V14.01,2013-05-16 23:28:00,
2013-05-16 19:33:00,63.0,34.9,29.20,ENE,68,4.3,4.3,35,0.00,,---,0.00,VWS V14.01,2013-05-16 23:33:00,
2013-05-16 19:38:00,62.6,35.3,29.20,ESE,112,13.6,13.6,36,0.00,,---,0.00,VWS V14.01,2013-05-16 23:38:00,
2013-05-16 19:44:00,62.1,35.5,29.23,SW,225,3.4,5.6,37,0.00,,---,0.00,VWS V14.01,2013-05-16 23:44:00,
2013-05-16 19:49:00,61.7,35.2,29.23,SE,135,2.5,2.7,37,0.00,,---,0.00,VWS V14.01,2013-05-16 23:49:00,
2013-05-16 19:54:00,61.3,35.5,29.26,NNW,338,4.7,7.2,38,0.00,,---,0.00,VWS V14.01,2013-05-16 23:54:00,
2013-05-16 19:59:00,61.2,35.4,29.26,East,90,1.6,3.4,38,0.00,,---,0.00,VWS V14.01,2013-05-16 23:59:00,
2013-05-16 20:04:00,61.0,35.2,29.26,WNW,292,2.9,4.3,38,0.00,,---,0.00,VWS V14.01,2013-05-17 00:04:00,
2013-05-16 20:10:00,60.6,36.2,29.26,ENE,68,2.9,5.4,40,0.00,,---,0.00,VWS V14.01,2013-05-17 00:10:00,
2013-05-16 20:15:00,60.4,35.4,29.26,NNE,22,2.0,4.7,39,0.00,,---,0.00,VWS V14.01,2013-05-17 00:15:00,
2013-05-16 20:20:00,60.3,35.2,29.26,SSE,158,5.4,6.3,39,0.00,,---,0.00,VWS V14.01,2013-05-17 00:20:00,
2013-05-16 20:25:00,60.1,35.7,29.26,West,270,2.5,4.0,40,0.00,,---,0.00,VWS V14.01,2013-05-17 00:25:00,
2013-05-16 20:30:00,60.1,35.1,29.26,SE,135,0.9,5.6,39,0.00,,---,0.00,VWS V14.01,2013-05-17 00:30:00,
2013-05-16 20:36:00,59.9,34.9,29.26,SSW,202,1.3,1.3,39,0.00,,---,0.00,VWS V14.01,2013-05-17 00:36:00,
2013-05-16 20:41:00,59.7,34.7,29.26,SSE,158,2.2,4.9,39,0.00,,---,0.00,VWS V14.01,2013-05-17 00:41:00,
2013-05-16 20:46:00,59.5,34.6,29.26,South,180,0.9,3.1,39,0.00,,---,0.00,VWS V14.01,2013-05-17 00:46:00,
2013-05-16 20:51:00,59.4,34.4,29.26,ESE,112,2.0,2.5,39,0.00,,---,0.00,VWS V14.01,2013-05-17 00:51:00,
2013-05-16 20:56:00,59.4,34.4,29.29,NNW,338,2.7,4.3,39,0.00,,---,0.00,VWS V14.01,2013-05-17 00:56:00,
2013-05-16 21:02:00,59.4,34.4,29.29,WNW,292,1.3,2.7,39,0.00,,---,0.00,VWS V14.01,2013-05-17 01:02:00,
2013-05-16 21:08:00,59.2,34.3,29.29,SSW,202,1.3,2.9,39,0.00,,---,0.00,VWS V14.01,2013-05-17 01:08:00,
2013-05-16 21:13:00,59.2,34.3,29.29,NNW,338,1.3,3.4,39,0.00,,---,0.00,VWS V14.01,2013-05-17 01:13:00,
2013-05-16 21:18:00,59.2,33.6,29.29,North,0,3.1,3.8,38,0.00,,---,0.00,VWS V14.01,2013-05-17 01:18:00,
2013-05-16 21:24:00,59.0,34.1,29.29,SW,225,4.3,4.3,39,0.00,,---,0.00,VWS V14.01,2013-05-17 01:24:00,
2013-05-16 21:29:00,58.8,33.9,29.29,NW,315,3.8,3.8,39,0.00,,---,0.00,VWS V14.01,2013-05-17 01:29:00,
2013-05-16 21:34:00,58.8,33.9,29.29,SSW,202,4.0,4.0,39,0.00,,---,0.00,VWS V14.01,2013-05-17 01:34:00,
2013-05-16 21:40:00,58.8,33.3,29.32,NNE,22,1.6,2.9,38,0.00,,---,0.00,VWS V14.01,2013-05-17 01:40:00,
2013-05-16 21:45:00,58.6,33.8,29.32,NE,45,3.1,3.1,39,0.00,,---,0.00,VWS V14.01,2013-05-17 01:45:00,
2013-05-16 21:51:00,58.6,33.1,29.32,South,180,4.3,4.3,38,0.00,,---,0.00,VWS V14.01,2013-05-17 01:51:00,
2013-05-16 21:56:00,58.5,33.6,29.32,SSW,202,2.0,2.0,39,0.00,,---,0.00,VWS V14.01,2013-05-17 01:56:00,
2013-05-16 22:02:00,58.3,33.5,29.32,West,270,2.5,6.0,39,0.00,,---,0.00,VWS V14.01,2013-05-17 02:02:00,
2013-05-16 22:07:00,58.1,33.3,29.32,SSW,202,10.7,10.7,39,0.00,,---,0.00,VWS V14.01,2013-05-17 02:07:00,
2013-05-16 22:13:00,57.9,33.8,29.32,South,180,4.9,6.3,40,0.00,,---,0.00,VWS V14.01,2013-05-17 02:13:00,
2013-05-16 22:18:00,57.7,33.6,29.32,ENE,68,3.8,10.1,40,0.00,,---,0.00,VWS V14.01,2013-05-17 02:18:00,
2013-05-16 22:23:00,57.6,34.1,29.32,NNW,338,2.5,2.5,41,0.00,,---,0.00,VWS V14.01,2013-05-17 02:23:00,
2013-05-16 22:28:00,57.2,33.7,29.32,SSE,158,0.9,0.9,41,0.00,,---,0.00,VWS V14.01,2013-05-17 02:28:00,
2013-05-16 22:33:00,57.0,34.2,29.32,WSW,248,1.6,2.0,42,0.00,,---,0.00,VWS V14.01,2013-05-17 02:33:00,
2013-05-16 22:38:00,56.8,34.0,29.32,SSW,202,3.8,5.8,42,0.00,,---,0.00,VWS V14.01,2013-05-17 02:38:00,
2013-05-16 22:44:00,56.8,34.6,29.32,NNW,338,2.7,3.8,43,0.00,,---,0.00,VWS V14.01,2013-05-17 02:44:00,
2013-05-16 22:49:00,56.7,35.0,29.32,WSW,248,5.4,5.8,44,0.00,,---,0.00,VWS V14.01,2013-05-17 02:49:00,
2013-05-16 22:54:00,56.5,34.8,29.32,SSW,202,1.6,1.6,44,0.00,,---,0.00,VWS V14.01,2013-05-17 02:54:00,
2013-05-16 23:00:00,56.3,34.7,29.32,SW,225,2.9,4.0,44,0.00,,---,0.00,VWS V14.01,2013-05-17 03:00:00,
2013-05-16 23:05:00,56.1,35.1,29.32,SW,225,1.1,2.7,45,0.00,,---,0.00,VWS V14.01,2013-05-17 03:05:00,
2013-05-16 23:10:00,55.8,34.8,29.32,ESE,112,2.7,2.7,45,0.00,,---,0.00,VWS V14.01,2013-05-17 03:10:00,
2013-05-16 23:15:00,55.8,34.8,29.32,South,180,2.0,2.0,45,0.00,,---,0.00,VWS V14.01,2013-05-17 03:15:00,
2013-05-16 23:21:00,55.4,34.4,29.32,NW,315,1.3,2.5,45,0.00,,---,0.00,VWS V14.01,2013-05-17 03:21:00,
2013-05-16 23:26:00,55.2,34.8,29.35,NNW,338,4.9,7.8,46,0.00,,---,0.00,VWS V14.01,2013-05-17 03:26:00,
2013-05-16 23:31:00,55.0,34.7,29.35,East,90,0.0,1.6,46,0.00,,---,0.00,VWS V14.01,2013-05-17 03:31:00,
2013-05-16 23:36:00,54.9,34.5,29.35,East,90,0.0,0.0,46,0.00,,---,0.00,VWS V14.01,2013-05-17 03:36:00,
2013-05-16 23:41:00,54.7,34.3,29.35,East,90,1.3,2.0,46,0.00,,---,0.00,VWS V14.01,2013-05-17 03:41:00,
2013-05-16 23:47:00,54.5,33.6,29.35,SSW,202,1.6,1.6,45,0.00,,---,0.00,VWS V14.01,2013-05-17 03:47:00,
2013-05-16 23:52:00,54.5,33.6,29.35,SSE,158,0.0,0.0,45,0.00,,---,0.00,VWS V14.01,2013-05-17 03:52:00,
2013-05-16 23:57:00,54.5,33.6,29.35,East,90,2.5,2.9,45,0.00,,---,0.00,VWS V14.01,2013-05-17 03:57:00,